• Join FlightAware (Why Join?)
  • Login
  • US Flag 
09:50PM EDT


 

Airport Tracker/Info


-or-


 

Live Flight TrackerFlight Track Log ✈ AWE2186 ✈ 18-Nov-2013 ✈ KDCA - KLGA

Flight Track Log - Related Links

Times and Time Zones

All times are in EST time to prevent confusion due to time zone crossing. See the AWE2186 flight status page for this flight to view local times or setup timezone preferences in your user account.

Time Position Orientation Groundspeed Altitude Reporting Facility
EST Latitude Longitude Course Direction KTS MPH feet Rate Location/Type
04:39PM 38.8833 -77.0500 92° East 164 189 1,600  Level Potomac TRACON
04:41PM 38.9472 -77.1369 313° West 189 217 7,200 3,000 Climbing Washington Center
04:42PM 39.1648 -76.5445 90° East  Level Estimated
04:42PM 39.0072 -77.1678 338° Northwest 204 235 10,200  Level Washington Center
04:43PM 39.2427 -76.4205 47° Northeast  Level Estimated
04:43PM 39.0419 -77.0536 69° East 205 236 11,700  Level Washington Center
04:44PM 39.2387 -76.2608 92° East  Level FlightAware Approximate
04:44PM 39.0333 -76.9036 94° East 292 336 15,200  Level Washington Center
04:45PM 39.0308 -76.7539 91° East 359 413 17,700 2,580 Climbing Washington Center
04:46PM 39.0281 -76.5964 91° East 405 466 20,500 1,680 Climbing Washington Center
04:47PM 39.0269 -76.4439 90° East 424 488 21,100 300 Climbing Washington Center
04:48PM 39.0156 -76.2994 96° East 418 481 21,100  Level Washington Center
04:49PM 38.9619 -76.1817 120° Southeast 387 445 21,100  Level Washington Center
04:50PM 38.9103 -76.0611 119° Southeast 382 440 21,100  Level Washington Center
04:51PM 38.8564 -75.9408 120° Southeast 382 440 21,100  Level Washington Center
04:52PM 38.8672 -75.7997 84° East 377 434 21,100  Level Washington Center
04:53PM 38.9508 -75.7092 40° Northeast 330 380 21,100  Level Washington Center
04:54PM 39.0489 -75.6425 28° Northeast 349 402 21,100  Level Washington Center
04:55PM 39.1531 -75.5703 28° Northeast 383 441 21,100  Level Washington Center
04:56PM 39.2656 -75.4869 30° Northeast 426 490 21,100  Level Washington Center
04:57PM 39.3694 -75.3956 34° Northeast 451 519 21,100 -360 Level Washington Center
04:58PM 39.4861 -75.3469 18° North 450 518 20,500 -780 Descending Washington Center
04:59PM 39.6050 -75.3250 North 425 489 19,600 -720 Descending Washington Center
05:00PM 39.7214 -75.2731 19° North 413 475 19,100 -600 Descending Washington Center
05:01PM 39.7897 -75.1353 57° Northeast 403 464 18,400 -1,800 Descending Washington Center
05:02PM 39.8517 -75.0211 55° Northeast 413 475 15,600 -2,880 Descending Washington Center
05:03PM 39.9322 -74.8853 52° Northeast 427 491 12,800 -1,920 Descending Washington Center
05:04PM 40.0667 -74.6833 49° Northeast 390 449 10,300 -1,020 Descending New York TRACON
05:05PM 40.1333 -74.6000 44° Northeast 370 426 10,000 -180 Descending New York TRACON
05:06PM 40.2000 -74.5000 49° Northeast 363 418 10,000 -480 Level New York TRACON
05:07PM 40.2667 -74.4167 44° Northeast 306 352 9,100 -960 Descending New York TRACON
05:08PM 40.3333 -74.3500 37° Northeast 289 333 8,100 -600 Descending New York TRACON
05:09PM 40.4000 -74.2833 37° Northeast 279 321 8,000 -60 Descending New York TRACON
05:10PM 40.4500 -74.2333 37° Northeast 251 289 8,000 -120 Level New York TRACON
05:11PM 40.5000 -74.1833 37° Northeast 252 290 7,800 -780 Descending New York TRACON
05:12PM 40.5667 -74.1167 37° Northeast 247 284 6,500 -1,260 Descending New York TRACON
05:13PM 40.6167 -74.0500 45° Northeast 244 281 5,200 -1,200 Descending New York TRACON
05:14PM 40.6667 -74.0000 37° Northeast 243 280 4,100 -600 Descending New York TRACON
05:15PM 40.7167 -73.9333 45° Northeast 248 285 4,000 -60 Descending New York TRACON
05:16PM 40.7500 -73.8667 57° Northeast 249 287 4,000  Level New York TRACON
05:17PM 40.7833 -73.7833 62° Northeast 234 269 4,000  Level New York TRACON
05:18PM 40.8167 -73.7333 49° Northeast 201 231 4,000  Level New York TRACON
05:19PM 40.8667 -73.7000 27° Northeast 207 238 4,000  Level New York TRACON
05:20PM 40.9167 -73.6667 27° Northeast 201 231 4,000  Level New York TRACON
05:21PM 40.9500 -73.7000 323° Northwest 167 192 4,000 -240 Level New York TRACON
05:22PM 40.9333 -73.7500 246° West 145 167 3,600 -600 Descending New York TRACON
05:23PM 40.9000 -73.7667 201° Southwest 150 173 2,800 -900 Descending New York TRACON
05:24PM 40.8667 -73.8000 217° Southwest 149 171 1,900 -780 Descending New York TRACON
05:25PM 40.8333 -73.8333 217° Southwest 119 137 1,200 -660 Descending New York TRACON
05:26PM 40.8000 -73.8500 201° Southwest 117 135 600 -600 Descending New York TRACON